Find Starlink 5936

NORAD ID: 56011 Int'l Des: 2023-042 Owner: SPXS Country: US Constellation: starlink operational
LEOCIRCULAR

Live Position

Loading 3D Globe...

About Starlink 5936

Description loading...

Upcoming Passes

Passes for default location (London). Set your location on the main map for personalized predictions.

Altitude History

Loading altitude history...

Two-Line Element Set

1 56011U 23042AB 26105.93830162 -.00000067 00000-0 70813-5 0 9998
2 56011 43.0026 194.7401 0001264 271.4000 88.6707 15.27574212168730
Epoch: Apr 15, 2026 • Age: 15 hours

Current Status

Altitude 483.7 km
Velocity 7.63 km/s
Sub-Earth Point 25.95°N, 63.5°W
Launch Date Mar 24, 2023
Age 3 years
Type internet

Technical Details

Classification Payload
Mass 305.00 kg
Dry Mass 290.00 kg
Total Mass 305.00 kg
Length 0.20 m
Diameter 2.80 m
Span 9.00 m
Shape Box + pan
Manufacturer SPXS
Bus Type Starlink
Phase Status In Orbit
Owner/State SPXS/US

Most Searched